Terminal Aerodrome Forecast
Issued by NWS Brownsville, TX

Home | Current Version | Previous Version | Text Only | Print | Product List | Glossary On
Versions: 1 2 3 4 5 6 7 8 9 10 11 12 13
000
FTUS44 KBRO 290523
TAFMFE
TAF
KMFE 290523Z 2906/3006 12008KT P6SM SKC
     FM291600 12008KT P6SM FEW040=

USA.gov is the U.S. government's official web portal to all federal, state and local government web resources and services.